Perry, FL

8:10 PM EST on February 05, 2016 (GMT -0500)
Perry

Weather History for K40J - March, 2014

Change the Weather History Date:

Tuesday, March 11, 2014

  Actual Average (KCTY) Record (KCTY)
Temperature  
Mean Temperature 64 °F 61 °F  
Max Temperature 77 °F 75 °F 87 °F (2015)
Min Temperature 50 °F 47 °F 32 °F (2004)
Degree Days  
Heating Degree Days 2 5  
Month to date heating degree days 65  
Since 1 July heating degree days 1185  
Cooling Degree Days 0 1  
Month to date cooling degree days 11  
Year to date cooling degree days 38  
Growing Degree Days 14 (Base 50)    
Moisture  
Dew Point 55 °F    
Average Humidity 82    
Maximum Humidity 100    
Minimum Humidity 41    
Precipitation  
Precipitation 0.00 in 0.14 in 0.05 in (2012)
Month to date precipitation 1.45  
Year to date precipitation 8.76  
Sea Level Pressure  
Sea Level Pressure 29.92 in    
Wind  
Wind Speed 2 mph (SW)    
Max Wind Speed 12 mph    
Max Gust Speed 17 mph    
Visibility 7 miles    
Events Fog    
T = Trace of Precipitation, MM = Missing Value Source: NWS Daily Summary

Daily Weather History Graph

Daily Weather History Graph

Search for Another Location

Airport or City:

Trip Planner

Search our weather history database for the weather conditions in past years. The results will help you decide how hot, cold, wet, or windy it might be!

Date:

Astronomy

Mar. 11, 2014 Rise Set
Actual Time 7:48 AM EDT 7:40 PM EDT
Civil Twilight 7:25 AM EDT 8:03 PM EDT
Nautical Twilight 6:57 AM EDT 8:31 PM EDT
Astronomical Twilight 6:29 AM EDT 8:59 PM EDT
Moon 3:30 PM EDT (3/11) 4:26 AM EDT (3/11)
Length of Visible Light 12h 38m
Length of Day
11h 51m
Waxing Gibbous, 78% of the Moon is Illuminated
Mar 11
Waxing Gibbous
Mar 16
Full
Mar 23
Last Quarter
Mar 30
New
Apr 7
First Quarter

Hourly Weather History & Observations

Time (EDT) Temp. Dew Point Humidity Pressure Visibility Wind Dir Wind Speed Gust Speed Precip Events Conditions
12:15 AM 55.4 °F 55.4 °F 100% 30.01 in 10.0 mi SW 3.5 mph - N/A   Clear
12:40 AM 55.4 °F 55.4 °F 100% 30.00 in 10.0 mi Calm Calm - N/A   Clear
12:55 AM 55.4 °F 55.4 °F 100% 30.00 in 10.0 mi Calm Calm - N/A   Clear
1:15 AM 55.4 °F 55.4 °F 100% 30.00 in 10.0 mi Calm Calm - N/A   Clear
1:35 AM 55.4 °F 55.4 °F 100% 29.99 in 10.0 mi Calm Calm - N/A   Clear
1:55 AM 53.6 °F 53.6 °F 100% 29.98 in 7.0 mi Calm Calm - N/A   Clear
2:15 AM 55.4 °F 55.4 °F 100% 29.98 in 5.0 mi Calm Calm - N/A   Clear
2:35 AM 55.4 °F 55.4 °F 100% 29.98 in 5.0 mi Calm Calm - N/A   Clear
2:55 AM 55.4 °F 55.4 °F 100% 29.98 in 1.2 mi Calm Calm - N/A   Mist
3:15 AM 55.4 °F 55.4 °F 100% 29.98 in 0.8 mi Calm Calm - N/A   Mist
3:35 AM 53.6 °F 53.6 °F 100% 29.97 in 0.2 mi Calm Calm - N/A Fog Fog
3:55 AM 53.6 °F 53.6 °F 100% 29.97 in 0.2 mi Calm Calm - N/A Fog Fog
4:15 AM 51.8 °F 51.8 °F 100% 29.97 in 0.2 mi Calm Calm - N/A Fog Fog
4:35 AM 53.6 °F 53.6 °F 100% 29.96 in 0.2 mi Calm Calm - N/A Fog Fog
4:55 AM 53.6 °F 53.6 °F 100% 29.96 in 0.2 mi Calm Calm - N/A Fog Fog
5:15 AM 53.6 °F 53.6 °F 100% 29.95 in 0.2 mi Calm Calm - N/A Fog Fog
5:35 AM 53.6 °F 53.6 °F 100% 29.95 in 0.2 mi Calm Calm - N/A Fog Fog
5:55 AM 53.6 °F 53.6 °F 100% 29.95 in 0.2 mi Calm Calm - N/A Fog Fog
6:15 AM 53.6 °F 53.6 °F 100% 29.95 in 0.2 mi Calm Calm - N/A Fog Fog
6:35 AM 51.8 °F 51.8 °F 100% 29.95 in 0.2 mi Calm Calm - N/A Fog Fog
6:55 AM 51.8 °F 51.8 °F 100% 29.95 in 0.2 mi Calm Calm - N/A Fog Fog
7:15 AM 51.8 °F 51.8 °F 100% 29.95 in 0.2 mi Calm Calm - N/A Fog Fog
7:35 AM 51.8 °F 51.8 °F 100% 29.95 in 0.2 mi Calm Calm - N/A Fog Fog
7:50 AM 51.8 °F 51.8 °F 100% 29.95 in 0.2 mi Calm Calm - N/A Fog Fog
8:15 AM 50.0 °F 50.0 °F 100% 29.95 in 0.2 mi Calm Calm - N/A Fog Fog
8:35 AM 50.0 °F 50.0 °F 100% 29.95 in 0.2 mi Calm Calm - N/A Fog Fog
8:55 AM 51.8 °F 51.8 °F 100% 29.95 in 0.2 mi Calm Calm - N/A Fog Fog
9:15 AM 53.6 °F 53.6 °F 100% 29.95 in 0.8 mi Calm Calm - N/A   Overcast
9:40 AM 59.0 °F 59.0 °F 100% 29.95 in 1.2 mi Calm Calm - N/A   Mostly Cloudy
9:55 AM 59.0 °F 59.0 °F 100% 29.96 in 7.0 mi Calm Calm - N/A   Scattered Clouds
10:15 AM 60.8 °F 60.8 °F 100% 29.97 in 10.0 mi Calm Calm - N/A   Clear
10:35 AM 62.6 °F 62.6 °F 100% 29.97 in 10.0 mi NW 4.6 mph - N/A   Clear
10:55 AM 62.6 °F 60.8 °F 94% 29.97 in 10.0 mi West 3.5 mph - N/A   Clear
11:15 AM 64.4 °F 59.0 °F 83% 29.97 in 10.0 mi NW 3.5 mph - N/A   Clear
11:35 AM 68.0 °F 55.4 °F 64% 29.96 in 10.0 mi Calm Calm - N/A   Clear
11:55 AM 69.8 °F 55.4 °F 60% 29.96 in 10.0 mi Calm Calm - N/A   Clear
12:15 PM 69.8 °F 53.6 °F 56% 29.95 in 10.0 mi Calm Calm - N/A   Clear
12:35 PM 71.6 °F 51.8 °F 50% 29.93 in 10.0 mi Calm Calm - N/A   Clear
12:55 PM 71.6 °F 50.0 °F 46% 29.94 in 10.0 mi Calm Calm - N/A   Clear
1:15 PM 73.4 °F 51.8 °F 47% 29.93 in 10.0 mi WSW 4.6 mph - N/A   Clear
1:35 PM 73.4 °F 51.8 °F 47% 29.92 in 10.0 mi West 3.5 mph - N/A   Clear
1:55 PM 77.0 °F 51.8 °F 41% 29.91 in 10.0 mi WSW 10.4 mph - N/A   Clear
2:15 PM 75.2 °F 53.6 °F 47% 29.90 in 10.0 mi WSW 10.4 mph - N/A   Clear
2:35 PM 73.4 °F 51.8 °F 47% 29.90 in 10.0 mi SW 10.4 mph 17.3 mph N/A   Clear
2:55 PM 73.4 °F 51.8 °F 47% 29.89 in 10.0 mi SW 10.4 mph - N/A   Clear
3:15 PM 73.4 °F 50.0 °F 44% 29.88 in 10.0 mi SW 9.2 mph - N/A   Clear
3:35 PM 73.4 °F 50.0 °F 44% 29.88 in 10.0 mi SSW 9.2 mph - N/A   Clear
3:55 PM 71.6 °F 51.8 °F 50% 29.88 in 10.0 mi SW 10.4 mph 17.3 mph N/A   Clear
4:15 PM 69.8 °F 51.8 °F 53% 29.87 in 10.0 mi SW 11.5 mph - N/A   Clear
4:35 PM 71.6 °F 50.0 °F 46% 29.86 in 10.0 mi SW 9.2 mph - N/A   Clear
4:55 PM 69.8 °F 51.8 °F 53% 29.86 in 10.0 mi SSW 5.8 mph - N/A   Clear
5:15 PM 69.8 °F 51.8 °F 53% 29.86 in 10.0 mi South 8.1 mph - N/A   Clear
5:35 PM 69.8 °F 51.8 °F 53% 29.86 in 10.0 mi SSW 9.2 mph - N/A   Clear
5:55 PM 68.0 °F 51.8 °F 56% 29.85 in 10.0 mi SSW 6.9 mph - N/A   Scattered Clouds
6:15 PM 68.0 °F 51.8 °F 56% 29.86 in 10.0 mi SSW 9.2 mph - N/A   Mostly Cloudy
6:35 PM 66.2 °F 53.6 °F 64% 29.85 in 10.0 mi SSW 6.9 mph - N/A   Overcast
6:55 PM 66.2 °F 53.6 °F 64% 29.85 in 10.0 mi SW 8.1 mph - N/A   Overcast
7:15 PM 64.4 °F 51.8 °F 64% 29.85 in 10.0 mi SSW 6.9 mph - N/A   Scattered Clouds
7:35 PM 62.6 °F 51.8 °F 68% 29.85 in 10.0 mi SSW 4.6 mph - N/A   Clear
7:55 PM 62.6 °F 53.6 °F 72% 29.86 in 10.0 mi South 5.8 mph - N/A   Clear
8:15 PM 62.6 °F 57.2 °F 82% 29.85 in 10.0 mi SSW 3.5 mph - N/A   Scattered Clouds
8:35 PM 62.6 °F 59.0 °F 88% 29.85 in 10.0 mi Calm Calm - N/A   Mostly Cloudy
8:55 PM 62.6 °F 60.8 °F 94% 29.85 in 10.0 mi South 3.5 mph - N/A   Overcast
9:15 PM 62.6 °F 60.8 °F 94% 29.85 in 10.0 mi Calm Calm - N/A   Mostly Cloudy
9:35 PM 62.6 °F 60.8 °F 94% 29.85 in 10.0 mi South 4.6 mph - N/A   Mostly Cloudy
9:55 PM 62.6 °F 60.8 °F 94% 29.85 in 10.0 mi South 3.5 mph - N/A   Overcast
10:15 PM 62.6 °F 60.8 °F 94% 29.86 in 10.0 mi South 6.9 mph - N/A   Overcast
10:40 PM 62.6 °F 60.8 °F 94% 29.84 in 10.0 mi South 3.5 mph - N/A   Overcast
10:55 PM 62.6 °F 60.8 °F 94% 29.84 in 10.0 mi Calm Calm - N/A   Mostly Cloudy
11:15 PM 62.6 °F 60.8 °F 94% 29.84 in 10.0 mi SE 3.5 mph - N/A   Scattered Clouds
11:35 PM 62.6 °F 60.8 °F 94% 29.84 in 10.0 mi SSE 3.5 mph - N/A   Mostly Cloudy
11:55 PM 62.6 °F 60.8 °F 94% 29.83 in 10.0 mi Calm Calm - N/A   Light Drizzle